TimePDT,TemperatureF,Dew PointF,Humidity,Sea Level PressureIn,VisibilityMPH,Wind Direction,Wind SpeedMPH,Gust SpeedMPH,PrecipitationIn,Events,Conditions,WindDirDegrees,DateUTC
12:58 AM,45.5,34.9,66,30.03,10.0,SSE,8.1,-,N/A,,Clear,150,2013-06-12 07:58:00
1:58 AM,44.4,36.3,73,30.04,10.0,SSE,10.4,-,N/A,,Clear,160,2013-06-12 08:58:00
2:45 AM,44.6,37.4,76,30.04,10.0,SE,10.4,-,N/A,,Scattered Clouds,130,2013-06-12 09:45:00
2:46 AM,44.6,37.4,76,30.04,10.0,SE,10.4,-,N/A,,Scattered Clouds,130,2013-06-12 09:46:00
2:58 AM,43.5,37.0,78,30.04,10.0,SSE,8.1,-,0.00,,Scattered Clouds,160,2013-06-12 09:58:00
3:08 AM,44.6,37.4,76,30.04,10.0,South,13.8,-,N/A,,Scattered Clouds,170,2013-06-12 10:08:00
3:28 AM,44.6,37.4,76,30.03,10.0,South,11.5,-,N/A,,Clear,180,2013-06-12 10:28:00
3:58 AM,43.3,36.7,77,30.04,10.0,Variable,2.3,-,0.00,,Partly Cloudy,0,2013-06-12 10:58:00
4:58 AM,42.1,36.0,79,30.05,10.0,South,3.5,-,N/A,,Clear,190,2013-06-12 11:58:00
5:13 AM,42.8,37.4,81,30.05,10.0,South,6.9,-,N/A,,Clear,180,2013-06-12 12:13:00
5:23 AM,42.8,37.4,81,30.04,10.0,SSW,4.6,-,N/A,,Clear,210,2013-06-12 12:23:00
5:58 AM,42.1,37.2,83,30.06,10.0,SE,3.5,-,0.00,,Clear,140,2013-06-12 12:58:00
6:58 AM,46.8,38.3,72,30.07,10.0,SSE,9.2,-,N/A,,Clear,160,2013-06-12 13:58:00
7:58 AM,51.1,38.3,62,30.06,10.0,SSE,8.1,-,N/A,,Clear,150,2013-06-12 14:58:00
8:55 AM,54.1,38.1,55,30.06,10.0,South,6.9,-,N/A,,Clear,190,2013-06-12 15:55:00
9:55 AM,57.4,36.5,46,30.07,10.0,SSE,10.4,-,N/A,,Clear,160,2013-06-12 16:55:00
10:58 AM,59.9,37.0,43,30.07,10.0,SSW,10.4,-,N/A,,Clear,200,2013-06-12 17:58:00
12:02 PM,61.7,35.8,38,30.06,10.0,SSW,8.1,-,N/A,,Mostly Cloudy,210,2013-06-12 19:02:00
12:55 PM,63.0,36.1,37,30.06,10.0,WSW,10.4,17.3,N/A,,Mostly Cloudy,240,2013-06-12 19:55:00
1:55 PM,62.6,36.9,38,30.06,10.0,SSE,4.6,-,N/A,,Mostly Cloudy,160,2013-06-12 20:55:00
2:55 PM,62.8,36.5,38,30.05,10.0,SE,8.1,-,N/A,,Scattered Clouds,140,2013-06-12 21:55:00
3:28 PM,64.4,37.4,37,30.04,10.0,South,8.1,-,N/A,,Partly Cloudy,180,2013-06-12 22:28:00
3:58 PM,63.9,36.0,36,30.05,10.0,SSE,5.8,-,N/A,,Mostly Cloudy,150,2013-06-12 22:58:00
4:58 PM,65.1,36.7,35,30.03,10.0,SW,9.2,-,N/A,,Mostly Cloudy,220,2013-06-12 23:58:00
5:58 PM,64.0,34.7,34,30.03,10.0,South,9.2,-,N/A,,Overcast,190,2013-06-13 00:58:00
6:58 PM,64.6,35.4,34,30.02,10.0,SSW,9.2,-,N/A,,Clear,210,2013-06-13 01:58:00
7:58 PM,61.0,38.1,43,30.00,10.0,South,5.8,-,N/A,,Clear,180,2013-06-13 02:58:00
8:58 PM,57.7,37.8,47,29.99,10.0,South,4.6,-,N/A,,Clear,190,2013-06-13 03:58:00
9:58 PM,52.3,36.7,55,30.02,10.0,South,3.5,-,N/A,,Clear,190,2013-06-13 04:58:00
10:58 PM,51.6,37.0,58,30.02,10.0,South,6.9,-,N/A,,Clear,180,2013-06-13 05:58:00
11:58 PM,50.5,34.2,53,30.01,10.0,SW,6.9,-,N/A,,Clear,230,2013-06-13 06:58:00